Time,TemperatureF,DewpointF,PressureIn,WindDirection,WindDirectionDegrees,WindSpeedMPH,WindSpeedGustMPH,Humidity,HourlyPrecipIn,Conditions,Clouds,dailyrainin,SoftwareType,DateUTC
2013-07-30 00:01:00,59.9,55.9,29.96,WNW,302,0.0,3.0,87,0.00,,,0.00,meteohub,2013-07-30 04:01:00,
2013-07-30 00:02:00,59.9,55.9,29.96,WNW,302,0.0,3.0,87,0.00,,,0.00,meteohub,2013-07-30 04:02:00,
2013-07-30 00:03:00,59.7,55.8,29.96,WNW,302,0.0,3.0,87,0.00,,,0.00,meteohub,2013-07-30 04:03:00,
2013-07-30 00:04:00,59.7,55.8,29.96,WNW,302,0.0,3.0,87,0.00,,,0.00,meteohub,2013-07-30 04:04:00,
2013-07-30 00:05:00,59.7,55.8,29.96,WNW,302,0.0,3.0,87,0.00,,,0.00,meteohub,2013-07-30 04:05:00,
2013-07-30 00:10:00,59.5,55.9,29.96,WNW,302,0.0,0.0,88,0.00,,,0.00,meteohub,2013-07-30 04:10:00,
2013-07-30 00:15:00,59.4,55.8,29.96,WNW,302,0.0,0.0,88,0.00,,,0.00,meteohub,2013-07-30 04:15:00,
2013-07-30 00:20:00,59.2,55.6,29.96,WNW,302,0.0,0.0,88,0.00,,,0.00,meteohub,2013-07-30 04:20:00,
2013-07-30 00:26:00,59.0,55.4,29.96,WNW,302,0.0,0.0,88,0.00,,,0.00,meteohub,2013-07-30 04:26:00,
2013-07-30 00:31:00,58.8,55.6,29.96,WNW,302,0.0,0.0,89,0.00,,,0.00,meteohub,2013-07-30 04:31:00,
2013-07-30 00:37:00,58.6,55.4,29.96,WNW,302,0.0,0.0,89,0.00,,,0.00,meteohub,2013-07-30 04:37:00,
2013-07-30 00:42:00,58.5,55.2,29.96,WNW,302,0.0,0.0,89,0.00,,,0.00,meteohub,2013-07-30 04:42:00,
2013-07-30 00:47:00,58.5,55.2,29.96,WNW,302,0.0,0.0,89,0.00,,,0.00,meteohub,2013-07-30 04:47:00,
2013-07-30 00:52:00,58.5,55.6,29.96,WNW,302,0.0,0.0,90,0.00,,,0.00,meteohub,2013-07-30 04:52:00,
2013-07-30 00:57:00,58.5,55.6,29.96,WNW,302,0.0,0.0,90,0.00,,,0.00,meteohub,2013-07-30 04:57:00,
2013-07-30 01:02:00,58.5,55.8,29.96,WNW,302,0.0,0.0,91,0.00,,,0.00,meteohub,2013-07-30 05:02:00,
2013-07-30 01:07:00,58.5,55.8,29.96,WNW,302,0.0,0.0,91,0.00,,,0.00,meteohub,2013-07-30 05:07:00,
2013-07-30 01:12:00,58.3,55.6,29.96,WNW,302,0.0,0.0,91,0.00,,,0.00,meteohub,2013-07-30 05:12:00,
2013-07-30 01:17:00,58.3,55.6,29.99,WNW,302,0.0,0.0,91,0.00,,,0.00,meteohub,2013-07-30 05:17:00,
2013-07-30 01:22:00,58.1,55.4,29.99,WNW,302,0.0,0.0,91,0.00,,,0.00,meteohub,2013-07-30 05:22:00,
2013-07-30 01:27:00,58.1,55.8,29.99,WNW,302,0.0,0.0,92,0.00,,,0.00,meteohub,2013-07-30 05:27:00,
2013-07-30 01:33:00,58.1,55.8,29.99,WNW,302,0.0,0.0,92,0.00,,,0.00,meteohub,2013-07-30 05:33:00,
2013-07-30 01:38:00,58.1,55.8,29.99,WNW,302,0.0,0.0,92,0.00,,,0.00,meteohub,2013-07-30 05:38:00,
2013-07-30 01:43:00,58.1,55.8,29.99,WNW,302,0.0,0.0,92,0.00,,,0.00,meteohub,2013-07-30 05:43:00,
2013-07-30 01:48:00,57.9,55.9,29.99,WNW,302,0.0,0.0,93,0.00,,,0.00,meteohub,2013-07-30 05:48:00,
2013-07-30 01:53:00,57.9,55.9,29.99,WNW,302,0.0,0.0,93,0.00,,,0.00,meteohub,2013-07-30 05:53:00,
2013-07-30 01:59:00,57.7,55.8,29.99,WNW,302,0.0,0.0,93,0.00,,,0.00,meteohub,2013-07-30 05:59:00,
2013-07-30 02:04:00,57.7,55.8,29.99,WNW,302,0.0,0.0,93,0.00,,,0.00,meteohub,2013-07-30 06:04:00,
2013-07-30 02:09:00,57.6,55.6,29.99,WNW,302,0.0,0.0,93,0.00,,,0.00,meteohub,2013-07-30 06:09:00,
2013-07-30 02:14:00,57.6,55.6,29.99,WNW,302,0.0,0.0,93,0.00,,,0.00,meteohub,2013-07-30 06:14:00,
2013-07-30 02:19:00,57.6,55.6,29.99,WNW,302,0.0,0.0,93,0.00,,,0.00,meteohub,2013-07-30 06:19:00,
2013-07-30 02:25:00,57.2,55.2,29.99,WNW,302,0.0,0.0,93,0.00,,,0.00,meteohub,2013-07-30 06:25:00,
2013-07-30 02:30:00,57.2,55.2,29.96,WNW,302,0.0,0.0,93,0.00,,,0.00,meteohub,2013-07-30 06:30:00,
2013-07-30 02:35:00,57.0,55.2,29.96,WNW,302,0.0,0.0,94,0.00,,,0.00,meteohub,2013-07-30 06:35:00,
2013-07-30 02:40:00,56.8,55.2,29.96,WNW,302,0.0,0.0,94,0.00,,,0.00,meteohub,2013-07-30 06:40:00,
2013-07-30 02:45:00,56.8,55.2,29.96,WNW,302,0.0,0.0,94,0.00,,,0.00,meteohub,2013-07-30 06:45:00,
2013-07-30 02:51:00,56.8,55.2,29.96,WNW,302,0.0,0.0,94,0.00,,,0.00,meteohub,2013-07-30 06:51:00,
2013-07-30 02:56:00,56.8,55.2,29.96,WNW,302,0.0,0.0,94,0.00,,,0.00,meteohub,2013-07-30 06:56:00,
2013-07-30 03:01:00,56.7,55.0,29.96,WNW,302,0.0,0.0,94,0.00,,,0.00,meteohub,2013-07-30 07:01:00,
2013-07-30 03:06:00,56.7,55.0,29.96,WNW,302,0.0,0.0,94,0.00,,,0.00,meteohub,2013-07-30 07:06:00,
2013-07-30 03:11:00,56.5,54.9,29.96,WNW,302,0.0,0.0,94,0.00,,,0.00,meteohub,2013-07-30 07:11:00,
2013-07-30 03:16:00,56.5,55.0,29.96,WNW,302,0.0,0.0,95,0.00,,,0.00,meteohub,2013-07-30 07:16:00,
2013-07-30 03:22:00,56.7,55.2,29.96,WNW,302,0.0,0.0,95,0.00,,,0.00,meteohub,2013-07-30 07:22:00,
2013-07-30 03:27:00,56.7,55.2,29.96,WNW,302,0.0,2.0,95,0.00,,,0.00,meteohub,2013-07-30 07:27:00,
2013-07-30 03:32:00,56.7,55.2,29.96,WNW,302,0.0,2.0,95,0.00,,,0.00,meteohub,2013-07-30 07:32:00,
2013-07-30 03:37:00,56.5,55.4,29.96,SE,143,0.0,2.0,96,0.00,,,0.00,meteohub,2013-07-30 07:37:00,
2013-07-30 03:42:00,56.5,55.4,29.96,SE,143,0.0,4.0,96,0.00,,,0.00,meteohub,2013-07-30 07:42:00,
2013-07-30 03:47:00,56.3,55.2,29.96,SE,143,0.0,4.0,96,0.00,,,0.00,meteohub,2013-07-30 07:47:00,
2013-07-30 03:52:00,56.5,55.4,29.96,SE,132,3.0,4.0,96,0.00,,,0.00,meteohub,2013-07-30 07:52:00,
2013-07-30 03:57:00,56.7,55.6,29.96,South,172,0.0,3.0,96,0.00,,,0.00,meteohub,2013-07-30 07:57:00,
2013-07-30 04:02:00,56.8,55.8,29.99,South,171,0.0,3.0,96,0.00,,,0.00,meteohub,2013-07-30 08:02:00,
2013-07-30 04:07:00,56.8,55.8,29.99,South,171,0.0,4.0,96,0.00,,,0.00,meteohub,2013-07-30 08:07:00,
2013-07-30 04:12:00,56.8,55.8,29.99,South,172,0.0,4.0,96,0.00,,,0.00,meteohub,2013-07-30 08:12:00,
2013-07-30 04:17:00,56.8,55.8,29.99,South,171,0.0,3.0,96,0.00,,,0.00,meteohub,2013-07-30 08:17:00,
2013-07-30 04:22:00,56.8,55.8,29.99,South,171,0.0,2.0,96,0.00,,,0.00,meteohub,2013-07-30 08:22:00,
2013-07-30 04:27:00,56.8,55.8,29.99,South,171,0.0,2.0,96,0.00,,,0.00,meteohub,2013-07-30 08:27:00,
2013-07-30 04:32:00,56.8,55.8,29.99,South,171,0.0,0.0,96,0.00,,,0.00,meteohub,2013-07-30 08:32:00,
2013-07-30 04:37:00,56.8,55.8,29.99,South,171,0.0,0.0,96,0.00,,,0.00,meteohub,2013-07-30 08:37:00,
2013-07-30 04:42:00,56.8,55.8,29.99,South,171,0.0,0.0,96,0.00,,,0.00,meteohub,2013-07-30 08:42:00,
2013-07-30 04:47:00,56.8,55.8,29.99,South,171,0.0,0.0,96,0.00,,,0.00,meteohub,2013-07-30 08:47:00,
2013-07-30 04:52:00,56.8,55.8,29.99,South,171,0.0,0.0,96,0.00,,,0.00,meteohub,2013-07-30 08:52:00,
2013-07-30 04:57:00,56.8,55.8,29.99,South,171,0.0,0.0,96,0.00,,,0.00,meteohub,2013-07-30 08:57:00,
2013-07-30 05:03:00,56.8,55.8,29.99,South,171,0.0,0.0,96,0.00,,,0.00,meteohub,2013-07-30 09:03:00,
2013-07-30 05:12:00,56.8,55.4,29.99,South,171,0.0,0.0,95,0.00,,,0.00,meteohub,2013-07-30 09:12:00,
2013-07-30 05:17:00,56.8,55.4,29.99,South,171,0.0,0.0,95,0.00,,,0.00,meteohub,2013-07-30 09:17:00,
2013-07-30 05:22:00,57.0,55.6,29.99,NNW,332,0.0,4.0,95,0.00,,,0.00,meteohub,2013-07-30 09:22:00,
2013-07-30 05:27:00,57.4,55.9,29.99,NNW,332,0.0,4.0,95,0.00,,,0.00,meteohub,2013-07-30 09:27:00,
2013-07-30 05:32:00,57.7,56.3,29.99,NNW,332,0.0,4.0,95,0.00,,,0.00,meteohub,2013-07-30 09:32:00,
2013-07-30 05:38:00,57.9,56.5,29.99,NNW,332,0.0,0.0,95,0.00,,,0.00,meteohub,2013-07-30 09:38:00,
2013-07-30 05:43:00,57.9,56.5,29.99,NNW,332,0.0,0.0,95,0.00,,,0.00,meteohub,2013-07-30 09:43:00,
2013-07-30 05:48:00,57.7,56.3,30.02,NNW,332,0.0,0.0,95,0.00,,,0.00,meteohub,2013-07-30 09:48:00,
2013-07-30 05:53:00,57.7,56.3,30.02,NNW,332,0.0,0.0,95,0.00,,,0.00,meteohub,2013-07-30 09:53:00,
2013-07-30 05:58:00,57.6,56.1,30.02,NNW,332,0.0,0.0,95,0.00,,,0.00,meteohub,2013-07-30 09:58:00,
2013-07-30 06:03:00,57.2,55.8,30.02,NNW,332,0.0,0.0,95,0.00,,,0.00,meteohub,2013-07-30 10:03:00,
2013-07-30 06:09:00,57.0,55.6,30.02,NNW,332,0.0,0.0,95,0.00,,,0.00,meteohub,2013-07-30 10:09:00,
2013-07-30 06:14:00,56.7,55.2,30.02,NNW,332,0.0,0.0,95,0.00,,,0.00,meteohub,2013-07-30 10:14:00,
2013-07-30 06:19:00,56.5,55.0,30.02,NNW,332,0.0,0.0,95,0.00,,,0.00,meteohub,2013-07-30 10:19:00,
2013-07-30 06:24:00,56.3,54.9,30.02,NNW,332,0.0,0.0,95,0.00,,,0.00,meteohub,2013-07-30 10:24:00,
2013-07-30 06:29:00,56.3,54.9,30.02,NNW,332,0.0,0.0,95,0.00,,,0.00,meteohub,2013-07-30 10:29:00,
2013-07-30 06:34:00,56.5,55.0,30.02,NNW,332,0.0,0.0,95,0.00,,,0.00,meteohub,2013-07-30 10:34:00,
2013-07-30 06:40:00,56.7,55.2,30.02,NNW,332,0.0,0.0,95,0.00,,,0.00,meteohub,2013-07-30 10:40:00,
2013-07-30 06:45:00,57.6,56.1,30.02,NNW,332,0.0,0.0,95,0.00,,,0.00,meteohub,2013-07-30 10:45:00,
2013-07-30 06:50:00,59.4,57.9,30.02,NNW,332,0.0,0.0,95,0.00,,,0.00,meteohub,2013-07-30 10:50:00,
2013-07-30 06:55:00,61.3,59.9,30.02,NNW,332,0.0,0.0,95,0.00,,,0.00,meteohub,2013-07-30 10:55:00,
2013-07-30 07:00:00,63.5,62.1,30.02,NNW,332,0.0,0.0,95,0.00,,,0.00,meteohub,2013-07-30 11:00:00,
2013-07-30 07:05:00,64.6,62.4,30.02,NNW,332,0.0,0.0,93,0.00,,,0.00,meteohub,2013-07-30 11:05:00,
2013-07-30 07:11:00,66.4,64.0,30.02,NNW,332,0.0,0.0,92,0.00,,,0.00,meteohub,2013-07-30 11:11:00,
2013-07-30 07:16:00,67.8,64.8,30.02,NNW,332,0.0,0.0,90,0.00,,,0.00,meteohub,2013-07-30 11:16:00,
2013-07-30 07:21:00,68.2,62.1,30.02,North,350,0.0,0.0,81,0.00,,,0.00,meteohub,2013-07-30 11:21:00,
2013-07-30 07:26:00,68.2,60.3,30.02,NNW,334,0.0,3.0,76,0.00,,,0.00,meteohub,2013-07-30 11:26:00,
2013-07-30 07:31:00,67.8,58.1,30.02,NNW,334,0.0,4.0,71,0.00,,,0.00,meteohub,2013-07-30 11:31:00,
2013-07-30 07:36:00,67.5,56.1,30.02,NNW,334,2.0,4.0,67,0.00,,,0.00,meteohub,2013-07-30 11:36:00,
2013-07-30 07:42:00,67.1,55.4,30.02,NNW,334,3.0,4.0,66,0.00,,,0.00,meteohub,2013-07-30 11:42:00,
2013-07-30 07:47:00,67.1,55.4,30.02,NW,315,0.0,3.0,66,0.00,,,0.00,meteohub,2013-07-30 11:47:00,
2013-07-30 07:52:00,67.6,55.9,30.02,NNW,339,0.0,3.0,66,0.00,,,0.00,meteohub,2013-07-30 11:52:00,
2013-07-30 07:57:00,68.0,54.9,30.02,North,0,4.0,6.0,63,0.00,,,0.00,meteohub,2013-07-30 11:57:00,
2013-07-30 08:02:00,68.7,54.7,30.02,NNE,19,3.0,6.0,61,0.00,,,0.00,meteohub,2013-07-30 12:02:00,
2013-07-30 08:07:00,69.1,55.0,30.02,NNE,19,0.0,6.0,61,0.00,,,0.00,meteohub,2013-07-30 12:07:00,
2013-07-30 08:12:00,69.6,53.8,30.02,WNW,292,5.0,5.0,57,0.00,,,0.00,meteohub,2013-07-30 12:12:00,
2013-07-30 08:17:00,70.0,54.0,30.02,NE,35,3.0,5.0,57,0.00,,,0.00,meteohub,2013-07-30 12:17:00,
2013-07-30 08:22:00,70.5,53.6,30.02,NW,314,3.0,6.0,55,0.00,,,0.00,meteohub,2013-07-30 12:22:00,
2013-07-30 08:27:00,70.9,52.9,30.02,North,9,8.0,8.0,53,0.00,,,0.00,meteohub,2013-07-30 12:27:00,
2013-07-30 08:33:00,71.1,51.4,30.02,North,4,0.0,8.0,50,0.00,,,0.00,meteohub,2013-07-30 12:33:00,
2013-07-30 08:38:00,71.2,51.6,30.02,North,353,3.0,10.0,50,0.00,,,0.00,meteohub,2013-07-30 12:38:00,
2013-07-30 08:43:00,71.2,51.6,30.02,NNW,330,4.0,10.0,50,0.00,,,0.00,meteohub,2013-07-30 12:43:00,
2013-07-30 08:48:00,71.6,52.5,30.05,WNW,300,8.0,8.0,51,0.00,,,0.00,meteohub,2013-07-30 12:48:00,
2013-07-30 08:53:00,72.0,53.4,30.05,WNW,293,3.0,8.0,52,0.00,,,0.00,meteohub,2013-07-30 12:53:00,
2013-07-30 08:58:00,72.0,51.3,30.05,North,0,4.0,8.0,48,0.00,,,0.00,meteohub,2013-07-30 12:58:00,
2013-07-30 09:03:00,72.1,50.7,30.05,WNW,303,4.0,9.0,47,0.00,,,0.00,meteohub,2013-07-30 13:03:00,
2013-07-30 09:08:00,72.5,52.3,30.05,North,9,0.0,9.0,49,0.00,,,0.00,meteohub,2013-07-30 13:08:00,
2013-07-30 09:13:00,72.3,52.2,30.05,North,6,0.0,9.0,49,0.00,,,0.00,meteohub,2013-07-30 13:13:00,
2013-07-30 09:18:00,72.5,51.6,30.02,NNE,18,0.0,8.0,48,0.00,,,0.00,meteohub,2013-07-30 13:18:00,
2013-07-30 09:24:00,72.7,51.3,30.02,West,260,3.0,8.0,47,0.00,,,0.00,meteohub,2013-07-30 13:24:00,
2013-07-30 09:29:00,72.7,51.8,30.02,North,7,6.0,8.0,48,0.00,,,0.00,meteohub,2013-07-30 13:29:00,
2013-07-30 09:34:00,72.7,51.3,30.02,NNE,24,5.0,8.0,47,0.00,,,0.00,meteohub,2013-07-30 13:34:00,
2013-07-30 09:39:00,73.0,51.6,30.02,NNE,14,0.0,7.0,47,0.00,,,0.00,meteohub,2013-07-30 13:39:00,
2013-07-30 09:44:00,73.0,51.1,30.02,North,10,5.0,7.0,46,0.00,,,0.00,meteohub,2013-07-30 13:44:00,
2013-07-30 09:49:00,73.2,52.9,30.02,NNW,346,6.0,8.0,49,0.00,,,0.00,meteohub,2013-07-30 13:49:00,
2013-07-30 09:54:00,73.4,51.4,30.02,SW,230,3.0,8.0,46,0.00,,,0.00,meteohub,2013-07-30 13:54:00,
2013-07-30 10:00:00,73.8,52.3,30.02,NNW,327,0.0,8.0,47,0.00,,,0.00,meteohub,2013-07-30 14:00:00,
2013-07-30 10:05:00,74.3,52.2,30.02,NE,51,3.0,8.0,46,0.00,,,0.00,meteohub,2013-07-30 14:05:00,
2013-07-30 10:10:00,74.7,52.0,30.02,WSW,251,3.0,6.0,45,0.00,,,0.00,meteohub,2013-07-30 14:10:00,
2013-07-30 10:15:00,74.5,52.9,30.02,WNW,295,0.0,6.0,47,0.00,,,0.00,meteohub,2013-07-30 14:15:00,
2013-07-30 10:20:00,74.3,53.4,30.02,WNW,297,0.0,6.0,48,0.00,,,0.00,meteohub,2013-07-30 14:20:00,
2013-07-30 10:25:00,74.5,52.9,30.02,WNW,303,4.0,6.0,47,0.00,,,0.00,meteohub,2013-07-30 14:25:00,
2013-07-30 10:31:00,74.1,50.9,30.02,North,353,5.0,6.0,44,0.00,,,0.00,meteohub,2013-07-30 14:31:00,
2013-07-30 10:36:00,74.5,51.1,30.02,North,350,4.0,7.0,44,0.00,,,0.00,meteohub,2013-07-30 14:36:00,
2013-07-30 10:41:00,74.8,50.9,30.02,West,281,3.0,8.0,43,0.00,,,0.00,meteohub,2013-07-30 14:41:00,
2013-07-30 10:46:00,75.0,51.1,30.02,North,8,6.0,8.0,43,0.00,,,0.00,meteohub,2013-07-30 14:46:00,
2013-07-30 10:51:00,75.0,51.6,30.02,NNW,342,3.0,8.0,44,0.00,,,0.00,meteohub,2013-07-30 14:51:00,
2013-07-30 10:56:00,75.4,50.0,30.02,NE,43,3.0,8.0,41,0.00,,,0.00,meteohub,2013-07-30 14:56:00,
2013-07-30 11:02:00,74.8,50.2,30.02,NE,45,2.0,8.0,42,0.00,,,0.00,meteohub,2013-07-30 15:02:00,
2013-07-30 11:07:00,75.4,52.0,30.02,West,271,2.0,9.0,44,0.00,,,0.00,meteohub,2013-07-30 15:07:00,
2013-07-30 11:12:00,75.0,52.2,30.02,WSW,253,3.0,9.0,45,0.00,,,0.00,meteohub,2013-07-30 15:12:00,
2013-07-30 11:17:00,75.2,51.8,30.02,NW,309,3.0,4.0,44,0.00,,,0.00,meteohub,2013-07-30 15:17:00,
2013-07-30 11:22:00,75.2,51.8,30.02,NW,308,5.0,5.0,44,0.00,,,0.00,meteohub,2013-07-30 15:22:00,
2013-07-30 11:27:00,75.4,52.5,30.02,WNW,290,2.0,6.0,45,0.00,,,0.00,meteohub,2013-07-30 15:27:00,
2013-07-30 11:32:00,76.1,53.2,30.02,NE,42,2.0,6.0,45,0.00,,,0.00,meteohub,2013-07-30 15:32:00,
2013-07-30 11:37:00,76.3,51.4,30.02,NE,43,3.0,5.0,42,0.00,,,0.00,meteohub,2013-07-30 15:37:00,
2013-07-30 11:42:00,76.5,51.6,30.02,NNE,19,0.0,8.0,42,0.00,,,0.00,meteohub,2013-07-30 15:42:00,
2013-07-30 11:47:00,76.8,52.0,30.02,WNW,298,3.0,8.0,42,0.00,,,0.00,meteohub,2013-07-30 15:47:00,
2013-07-30 11:52:00,77.0,53.4,30.02,NW,315,5.0,8.0,44,0.00,,,0.00,meteohub,2013-07-30 15:52:00,
2013-07-30 11:57:00,76.3,51.4,30.02,SSE,158,4.0,6.0,42,0.00,,,0.00,meteohub,2013-07-30 15:57:00,
2013-07-30 12:03:00,75.4,52.0,30.02,West,265,3.0,8.0,44,0.00,,,0.00,meteohub,2013-07-30 16:03:00,
2013-07-30 12:08:00,75.6,54.0,30.02,East,80,0.0,8.0,47,0.00,,,0.00,meteohub,2013-07-30 16:08:00,
2013-07-30 12:13:00,76.1,52.5,30.02,NNW,338,4.0,5.0,44,0.00,,,0.00,meteohub,2013-07-30 16:13:00,
2013-07-30 12:18:00,75.6,50.2,30.02,North,357,4.0,8.0,41,0.00,,,0.00,meteohub,2013-07-30 16:18:00,
2013-07-30 12:23:00,74.7,50.7,30.02,NNE,15,3.0,10.0,43,0.00,,,0.00,meteohub,2013-07-30 16:23:00,
2013-07-30 12:28:00,75.0,53.4,30.02,SW,227,3.0,10.0,47,0.00,,,0.00,meteohub,2013-07-30 16:28:00,
2013-07-30 12:34:00,74.8,50.9,30.02,NNE,20,3.0,10.0,43,0.00,,,0.00,meteohub,2013-07-30 16:34:00,
2013-07-30 12:39:00,74.7,51.3,30.02,NNW,339,4.0,8.0,44,0.00,,,0.00,meteohub,2013-07-30 16:39:00,
2013-07-30 12:44:00,74.7,52.0,30.02,WSW,245,2.0,6.0,45,0.00,,,0.00,meteohub,2013-07-30 16:44:00,
2013-07-30 12:49:00,75.4,53.2,30.02,North,10,0.0,5.0,46,0.00,,,0.00,meteohub,2013-07-30 16:49:00,
2013-07-30 12:55:00,74.8,52.7,30.02,West,280,4.0,5.0,46,0.00,,,0.00,meteohub,2013-07-30 16:55:00,
2013-07-30 13:00:00,74.1,51.4,30.02,NNE,15,0.0,5.0,45,0.00,,,0.00,meteohub,2013-07-30 17:00:00,
2013-07-30 13:05:00,74.3,54.0,30.02,WSW,242,0.0,8.0,49,0.00,,,0.00,meteohub,2013-07-30 17:05:00,
2013-07-30 13:10:00,74.8,52.7,30.02,NE,54,0.0,8.0,46,0.00,,,0.00,meteohub,2013-07-30 17:10:00,
2013-07-30 13:15:00,75.0,51.1,30.02,NE,43,2.0,4.0,43,0.00,,,0.00,meteohub,2013-07-30 17:15:00,
2013-07-30 13:20:00,75.6,52.2,30.02,North,357,0.0,3.0,44,0.00,,,0.00,meteohub,2013-07-30 17:20:00,
2013-07-30 13:25:00,75.9,51.8,30.02,North,1,2.0,8.0,43,0.00,,,0.00,meteohub,2013-07-30 17:25:00,
2013-07-30 13:31:00,75.7,51.6,29.99,North,357,5.0,8.0,43,0.00,,,0.00,meteohub,2013-07-30 17:31:00,
2013-07-30 13:36:00,75.2,51.1,29.99,NNE,26,5.0,8.0,43,0.00,,,0.00,meteohub,2013-07-30 17:36:00,
2013-07-30 13:42:00,74.5,51.1,29.99,North,2,3.0,5.0,44,0.00,,,0.00,meteohub,2013-07-30 17:42:00,
2013-07-30 13:47:00,74.7,51.3,29.99,NNW,341,4.0,6.0,44,0.00,,,0.00,meteohub,2013-07-30 17:47:00,
2013-07-30 13:52:00,75.0,51.1,29.99,NW,305,5.0,8.0,43,0.00,,,0.00,meteohub,2013-07-30 17:52:00,
2013-07-30 13:58:00,75.0,53.4,29.99,NW,315,3.0,8.0,47,0.00,,,0.00,meteohub,2013-07-30 17:58:00,
2013-07-30 14:03:00,76.1,52.5,29.99,NNW,342,3.0,8.0,44,0.00,,,0.00,meteohub,2013-07-30 18:03:00,
2013-07-30 14:08:00,76.1,50.0,29.99,WNW,302,6.0,6.0,40,0.00,,,0.00,meteohub,2013-07-30 18:08:00,
2013-07-30 14:13:00,76.5,51.1,29.99,NNW,334,5.0,9.0,41,0.00,,,0.00,meteohub,2013-07-30 18:13:00,
2013-07-30 14:14:00,76.5,51.1,29.99,NNW,334,0.0,9.0,41,0.00,,,0.00,meteohub,2013-07-30 18:14:00,
2013-07-30 14:19:00,77.0,50.9,29.99,NW,312,3.0,9.0,40,0.00,,,0.00,meteohub,2013-07-30 18:19:00,
2013-07-30 14:25:00,75.9,51.8,29.99,NW,320,0.0,9.0,43,0.00,,,0.00,meteohub,2013-07-30 18:25:00,
2013-07-30 14:30:00,75.7,51.6,29.99,West,268,0.0,8.0,43,0.00,,,0.00,meteohub,2013-07-30 18:30:00,
2013-07-30 14:35:00,76.5,52.3,29.99,WSW,256,2.0,5.0,43,0.00,,,0.00,meteohub,2013-07-30 18:35:00,
2013-07-30 14:40:00,77.4,50.5,29.99,NNE,16,2.0,5.0,39,0.00,,,0.00,meteohub,2013-07-30 18:40:00,
2013-07-30 14:45:00,77.7,50.0,29.99,NNW,338,0.0,4.0,38,0.00,,,0.00,meteohub,2013-07-30 18:45:00,
2013-07-30 14:50:00,77.9,50.9,29.99,West,268,3.0,8.0,39,0.00,,,0.00,meteohub,2013-07-30 18:50:00,
2013-07-30 14:55:00,78.1,51.8,29.99,North,7,0.0,8.0,40,0.00,,,0.00,meteohub,2013-07-30 18:55:00,
2013-07-30 15:00:00,78.3,48.4,29.99,North,357,5.0,7.0,35,0.00,,,0.00,meteohub,2013-07-30 19:00:00,
2013-07-30 15:05:00,77.7,50.7,29.99,NE,36,2.0,8.0,39,0.00,,,0.00,meteohub,2013-07-30 19:05:00,
2013-07-30 15:11:00,77.5,52.0,29.99,NE,51,2.0,8.0,41,0.00,,,0.00,meteohub,2013-07-30 19:11:00,
2013-07-30 15:16:00,77.9,52.3,29.99,North,357,2.0,8.0,41,0.00,,,0.00,meteohub,2013-07-30 19:16:00,
2013-07-30 15:21:00,77.5,52.7,29.99,NE,37,3.0,4.0,42,0.00,,,0.00,meteohub,2013-07-30 19:21:00,
2013-07-30 15:26:00,76.6,51.8,29.99,WNW,294,0.0,4.0,42,0.00,,,0.00,meteohub,2013-07-30 19:26:00,
2013-07-30 15:32:00,75.9,51.8,29.99,North,10,4.0,4.0,43,0.00,,,0.00,meteohub,2013-07-30 19:32:00,
2013-07-30 15:37:00,75.7,51.6,29.99,NNE,30,3.0,6.0,43,0.00,,,0.00,meteohub,2013-07-30 19:37:00,
2013-07-30 15:42:00,77.0,51.4,29.99,North,11,0.0,6.0,41,0.00,,,0.00,meteohub,2013-07-30 19:42:00,
2013-07-30 15:47:00,77.0,48.7,29.99,NNW,335,4.0,6.0,37,0.00,,,0.00,meteohub,2013-07-30 19:47:00,
2013-07-30 15:52:00,75.9,49.8,29.99,NNW,329,4.0,6.0,40,0.00,,,0.00,meteohub,2013-07-30 19:52:00,
2013-07-30 15:57:00,75.6,51.4,29.99,NW,310,0.0,6.0,43,0.00,,,0.00,meteohub,2013-07-30 19:57:00,
2013-07-30 16:02:00,76.5,52.3,29.99,NNE,18,0.0,6.0,43,0.00,,,0.00,meteohub,2013-07-30 20:02:00,
2013-07-30 16:07:00,78.1,53.8,29.99,SE,139,4.0,6.0,43,0.00,,,0.00,meteohub,2013-07-30 20:07:00,
2013-07-30 16:12:00,78.6,53.6,29.99,NW,319,0.0,5.0,42,0.00,,,0.00,meteohub,2013-07-30 20:12:00,
2013-07-30 16:18:00,78.4,53.4,29.99,SE,135,3.0,5.0,42,0.00,,,0.00,meteohub,2013-07-30 20:18:00,
2013-07-30 16:23:00,78.4,52.7,29.99,North,7,3.0,4.0,41,0.00,,,0.00,meteohub,2013-07-30 20:23:00,
2013-07-30 16:28:00,77.7,52.2,29.99,WSW,258,3.0,5.0,41,0.00,,,0.00,meteohub,2013-07-30 20:28:00,
2013-07-30 16:33:00,77.4,51.8,29.99,NW,326,2.0,5.0,41,0.00,,,0.00,meteohub,2013-07-30 20:33:00,
2013-07-30 16:38:00,77.2,51.6,29.99,ENE,67,3.0,5.0,41,0.00,,,0.00,meteohub,2013-07-30 20:38:00,
2013-07-30 16:43:00,76.6,51.8,29.99,West,275,0.0,4.0,42,0.00,,,0.00,meteohub,2013-07-30 20:43:00,
2013-07-30 16:49:00,76.1,52.0,29.99,NW,304,3.0,4.0,43,0.00,,,0.00,meteohub,2013-07-30 20:49:00,
2013-07-30 16:54:00,75.7,52.3,29.99,ESE,113,2.0,4.0,44,0.00,,,0.00,meteohub,2013-07-30 20:54:00,
2013-07-30 16:59:00,75.0,51.6,29.99,WSW,257,3.0,4.0,44,0.00,,,0.00,meteohub,2013-07-30 20:59:00,
2013-07-30 17:04:00,74.3,52.7,29.96,SW,231,0.0,3.0,47,0.00,,,0.00,meteohub,2013-07-30 21:04:00,
2013-07-30 17:09:00,73.8,53.4,29.96,SW,223,0.0,4.0,49,0.00,,,0.00,meteohub,2013-07-30 21:09:00,
2013-07-30 17:15:00,73.6,53.2,29.96,SSW,206,0.0,4.0,49,0.00,,,0.00,meteohub,2013-07-30 21:15:00,
2013-07-30 17:20:00,73.8,52.3,29.96,West,266,0.0,3.0,47,0.00,,,0.00,meteohub,2013-07-30 21:20:00,
2013-07-30 17:25:00,74.1,51.4,29.96,NE,35,3.0,5.0,45,0.00,,,0.00,meteohub,2013-07-30 21:25:00,
2013-07-30 17:30:00,74.7,52.5,29.96,NNE,30,3.0,5.0,46,0.00,,,0.00,meteohub,2013-07-30 21:30:00,
2013-07-30 17:36:00,74.5,53.4,29.96,SW,228,0.0,5.0,48,0.00,,,0.00,meteohub,2013-07-30 21:36:00,
2013-07-30 17:41:00,74.3,53.4,29.96,NE,38,0.0,5.0,48,0.00,,,0.00,meteohub,2013-07-30 21:41:00,
2013-07-30 17:46:00,74.1,52.5,29.99,NE,38,2.0,4.0,47,0.00,,,0.00,meteohub,2013-07-30 21:46:00,
2013-07-30 17:52:00,73.8,53.4,29.99,West,272,3.0,3.0,49,0.00,,,0.00,meteohub,2013-07-30 21:52:00,
2013-07-30 17:57:00,73.4,53.6,29.99,WSW,237,0.0,4.0,50,0.00,,,0.00,meteohub,2013-07-30 21:57:00,
2013-07-30 18:02:00,73.2,54.0,29.99,WSW,237,0.0,4.0,51,0.00,,,0.00,meteohub,2013-07-30 22:02:00,
2013-07-30 18:07:00,73.2,54.5,29.99,NW,323,0.0,4.0,52,0.00,,,0.00,meteohub,2013-07-30 22:07:00,
2013-07-30 18:13:00,73.0,54.3,29.99,North,353,0.0,3.0,52,0.00,,,0.00,meteohub,2013-07-30 22:13:00,
2013-07-30 18:18:00,73.0,53.8,29.99,NE,37,0.0,3.0,51,0.00,,,0.00,meteohub,2013-07-30 22:18:00,
2013-07-30 18:23:00,72.9,54.7,29.99,NNE,29,0.0,4.0,53,0.00,,,0.00,meteohub,2013-07-30 22:23:00,
2013-07-30 18:28:00,72.5,54.9,29.99,NW,304,0.0,4.0,54,0.00,,,0.00,meteohub,2013-07-30 22:28:00,
2013-07-30 18:33:00,72.1,54.5,29.99,NW,321,0.0,4.0,54,0.00,,,0.00,meteohub,2013-07-30 22:33:00,
2013-07-30 18:38:00,72.1,55.6,29.99,NW,321,0.0,3.0,56,0.00,,,0.00,meteohub,2013-07-30 22:38:00,
2013-07-30 18:43:00,71.8,55.2,29.99,NW,321,0.0,2.0,56,0.00,,,0.00,meteohub,2013-07-30 22:43:00,
2013-07-30 18:48:00,71.6,55.6,29.99,NW,321,0.0,0.0,57,0.00,,,0.00,meteohub,2013-07-30 22:48:00,
2013-07-30 18:54:00,71.4,55.9,29.99,NW,321,0.0,0.0,58,0.00,,,0.00,meteohub,2013-07-30 22:54:00,
2013-07-30 18:59:00,71.1,55.9,29.99,NW,321,0.0,0.0,59,0.00,,,0.00,meteohub,2013-07-30 22:59:00,
2013-07-30 19:04:00,70.7,55.6,29.99,NW,321,0.0,0.0,59,0.00,,,0.00,meteohub,2013-07-30 23:04:00,
2013-07-30 19:09:00,70.5,55.9,29.99,NW,321,0.0,0.0,60,0.00,,,0.00,meteohub,2013-07-30 23:09:00,
2013-07-30 19:14:00,70.2,55.6,29.99,NW,321,0.0,0.0,60,0.00,,,0.00,meteohub,2013-07-30 23:14:00,
2013-07-30 19:19:00,70.2,55.6,29.99,NW,321,0.0,0.0,60,0.00,,,0.00,meteohub,2013-07-30 23:19:00,
2013-07-30 19:24:00,70.0,55.9,29.99,NW,321,0.0,0.0,61,0.00,,,0.00,meteohub,2013-07-30 23:24:00,
2013-07-30 19:30:00,69.8,55.8,29.99,NW,321,0.0,0.0,61,0.00,,,0.00,meteohub,2013-07-30 23:30:00,
2013-07-30 19:35:00,69.6,55.9,29.99,NW,321,0.0,0.0,62,0.00,,,0.00,meteohub,2013-07-30 23:35:00,
2013-07-30 19:40:00,69.3,56.5,29.99,NW,321,0.0,0.0,64,0.00,,,0.00,meteohub,2013-07-30 23:40:00,
2013-07-30 19:45:00,69.1,56.8,29.99,NW,321,0.0,0.0,65,0.00,,,0.00,meteohub,2013-07-30 23:45:00,
2013-07-30 19:51:00,68.9,57.0,29.99,NW,321,0.0,0.0,66,0.00,,,0.00,meteohub,2013-07-30 23:51:00,
2013-07-30 19:56:00,68.7,57.4,29.99,NW,321,0.0,0.0,67,0.00,,,0.00,meteohub,2013-07-30 23:56:00,
2013-07-30 20:02:00,68.5,57.6,29.99,NW,321,0.0,0.0,68,0.00,,,0.00,meteohub,2013-07-31 00:02:00,
2013-07-30 20:07:00,68.4,57.7,29.99,NW,321,0.0,0.0,69,0.00,,,0.00,meteohub,2013-07-31 00:07:00,
2013-07-30 20:12:00,68.2,58.1,29.99,NW,321,0.0,0.0,70,0.00,,,0.00,meteohub,2013-07-31 00:12:00,
2013-07-30 20:17:00,68.2,58.1,29.99,NW,321,0.0,0.0,70,0.00,,,0.00,meteohub,2013-07-31 00:17:00,
2013-07-30 20:22:00,68.0,58.3,29.99,NW,321,0.0,0.0,71,0.00,,,0.00,meteohub,2013-07-31 00:22:00,
2013-07-30 20:27:00,67.6,57.9,29.99,NW,321,0.0,0.0,71,0.00,,,0.00,meteohub,2013-07-31 00:27:00,
2013-07-30 20:32:00,67.5,57.4,29.99,NW,321,0.0,0.0,70,0.00,,,0.00,meteohub,2013-07-31 00:32:00,
2013-07-30 20:37:00,67.1,57.0,29.99,NW,321,0.0,0.0,70,0.00,,,0.00,meteohub,2013-07-31 00:37:00,
2013-07-30 20:42:00,66.7,56.7,29.99,NW,321,0.0,0.0,70,0.00,,,0.00,meteohub,2013-07-31 00:42:00,
2013-07-30 20:47:00,66.6,56.5,29.99,NW,320,0.0,0.0,70,0.00,,,0.00,meteohub,2013-07-31 00:47:00,
2013-07-30 20:52:00,66.2,56.1,29.99,NW,321,0.0,0.0,70,0.00,,,0.00,meteohub,2013-07-31 00:52:00,
2013-07-30 20:57:00,65.8,55.8,29.99,NW,321,0.0,0.0,70,0.00,,,0.00,meteohub,2013-07-31 00:57:00,
2013-07-30 21:02:00,65.7,55.6,29.99,NW,321,0.0,0.0,70,0.00,,,0.00,meteohub,2013-07-31 01:02:00,
2013-07-30 21:07:00,65.3,54.9,29.99,NW,321,0.0,0.0,69,0.00,,,0.00,meteohub,2013-07-31 01:07:00,
2013-07-30 21:12:00,64.9,54.5,29.99,NW,321,0.0,0.0,69,0.00,,,0.00,meteohub,2013-07-31 01:12:00,
2013-07-30 21:18:00,64.6,54.5,29.99,NW,321,0.0,0.0,70,0.00,,,0.00,meteohub,2013-07-31 01:18:00,
2013-07-30 21:23:00,64.4,54.3,29.99,NW,321,0.0,0.0,70,0.00,,,0.00,meteohub,2013-07-31 01:23:00,
2013-07-30 21:28:00,64.0,54.5,29.99,NW,321,0.0,0.0,71,0.00,,,0.00,meteohub,2013-07-31 01:28:00,
2013-07-30 21:33:00,63.9,54.3,29.99,NW,321,0.0,0.0,71,0.00,,,0.00,meteohub,2013-07-31 01:33:00,
2013-07-30 21:38:00,63.9,54.7,29.99,NW,321,0.0,0.0,72,0.00,,,0.00,meteohub,2013-07-31 01:38:00,
2013-07-30 21:43:00,63.7,54.5,29.99,NW,321,0.0,0.0,72,0.00,,,0.00,meteohub,2013-07-31 01:43:00,
2013-07-30 21:48:00,63.5,54.3,29.99,NW,321,0.0,0.0,72,0.00,,,0.00,meteohub,2013-07-31 01:48:00,
2013-07-30 21:53:00,63.1,54.3,29.99,NW,321,0.0,0.0,73,0.00,,,0.00,meteohub,2013-07-31 01:53:00,
2013-07-30 21:58:00,63.0,54.1,29.99,NW,321,0.0,0.0,73,0.00,,,0.00,meteohub,2013-07-31 01:58:00,
2013-07-30 22:04:00,63.0,54.5,29.99,NW,321,0.0,0.0,74,0.00,,,0.00,meteohub,2013-07-31 02:04:00,
2013-07-30 22:09:00,63.0,54.9,29.99,NW,321,0.0,0.0,75,0.00,,,0.00,meteohub,2013-07-31 02:09:00,
2013-07-30 22:14:00,63.0,55.6,29.99,NW,321,0.0,0.0,77,0.00,,,0.00,meteohub,2013-07-31 02:14:00,
2013-07-30 22:19:00,63.0,55.6,29.99,NW,321,0.0,0.0,77,0.00,,,0.00,meteohub,2013-07-31 02:19:00,
2013-07-30 22:24:00,62.6,55.2,29.99,NW,321,0.0,0.0,77,0.00,,,0.00,meteohub,2013-07-31 02:24:00,
2013-07-30 22:29:00,62.2,55.6,29.99,NW,321,0.0,0.0,79,0.00,,,0.00,meteohub,2013-07-31 02:29:00,
2013-07-30 22:34:00,61.9,55.2,29.99,NW,321,0.0,0.0,79,0.00,,,0.00,meteohub,2013-07-31 02:34:00,
2013-07-30 22:40:00,61.5,54.9,29.99,NW,321,0.0,0.0,79,0.00,,,0.00,meteohub,2013-07-31 02:40:00,
2013-07-30 22:45:00,61.3,55.0,29.99,NW,321,0.0,0.0,80,0.00,,,0.00,meteohub,2013-07-31 02:45:00,
2013-07-30 22:50:00,61.3,55.0,29.99,NE,36,0.0,0.0,80,0.00,,,0.00,meteohub,2013-07-31 02:50:00,
2013-07-30 22:55:00,61.2,55.2,29.99,NE,36,0.0,0.0,81,0.00,,,0.00,meteohub,2013-07-31 02:55:00,
2013-07-30 23:01:00,61.2,55.2,29.99,NE,36,0.0,0.0,81,0.00,,,0.00,meteohub,2013-07-31 03:01:00,
2013-07-30 23:06:00,61.2,55.6,29.99,NE,36,0.0,0.0,82,0.00,,,0.00,meteohub,2013-07-31 03:06:00,
2013-07-30 23:11:00,61.3,56.1,29.99,NE,36,0.0,0.0,83,0.00,,,0.00,meteohub,2013-07-31 03:11:00,
2013-07-30 23:16:00,61.3,56.1,29.99,NE,36,0.0,0.0,83,0.00,,,0.00,meteohub,2013-07-31 03:16:00,
2013-07-30 23:21:00,61.2,56.3,29.99,NE,36,0.0,0.0,84,0.00,,,0.00,meteohub,2013-07-31 03:21:00,
2013-07-30 23:26:00,61.0,55.8,29.99,NE,36,0.0,0.0,83,0.00,,,0.00,meteohub,2013-07-31 03:26:00,
2013-07-30 23:31:00,60.8,55.6,30.02,NE,36,0.0,0.0,83,0.00,,,0.00,meteohub,2013-07-31 03:31:00,
2013-07-30 23:37:00,60.4,55.6,30.02,NE,36,0.0,0.0,84,0.00,,,0.00,meteohub,2013-07-31 03:37:00,
2013-07-30 23:42:00,60.3,55.4,30.02,NE,36,0.0,0.0,84,0.00,,,0.00,meteohub,2013-07-31 03:42:00,
2013-07-30 23:47:00,60.4,55.9,29.99,NE,36,0.0,0.0,85,0.00,,,0.00,meteohub,2013-07-31 03:47:00,
2013-07-30 23:52:00,60.4,55.9,29.99,NE,36,0.0,0.0,85,0.00,,,0.00,meteohub,2013-07-31 03:52:00,
2013-07-30 23:57:00,60.1,55.9,29.99,NE,36,0.0,0.0,86,0.00,,,0.00,meteohub,2013-07-31 03:57:00,